Regional Weather Roundup
Issued by NWS

Home | Current Version | Previous Version | Text Only | Print | Product List | Glossary Off
Versions: 1 2 3 4 5 6 7 8 9 10 11 12 13 14 15 16 17 18 19 20 21 22 23 24 25 26 27 28 29 30 31 32 33 34 35 36 37 38 39 40 41 42 43 44 45 46 47 48 49 50

000
ASUS43 KDTX 252110
RWRMI
MICHIGAN HOURLY REGIONAL WEATHER ROUNDUP
NATIONAL WEATHER SERVICE DETROIT/PONTIAC MI
400 PM EST THU DEC 25 2014

NOTE: "FAIR" INDICATES FEW OR NO CLOUDS BELOW 12,000 FEET WITH NO
SIGNIFICANT WEATHER AND/OR OBSTRUCTION TO VISIBILITY.

MIZ047>049-052>055-059>063-066>070-074>076-081>083-252200-
SOUTHEAST LOWER MICHIGAN

CITY           SKY/WX    TMP DP  RH WIND       PRES   REMARKS
ADRIAN         CLOUDY    37  29  72 W14G22    30.04R WCI  28
ALMA           CLOUDY    36  31  82 SW10      29.97R WCI  28
ANN ARBOR      CLOUDY    37  29  72 W18G31    30.02R WCI  27
BAD AXE        CLOUDY    36  32  85 SW16G24   29.94R WCI  26
CARO           CLOUDY    36  30  79 SW17G24   29.95R WCI  26
DETROIT CITY   CLOUDY    39  28  64 W12       30.03R WCI  32
DETROIT        CLOUDY    38  30  73 SW13G22   30.03R WCI  30
FLINT          CLOUDY    38  29  70 SW14G23   30.00R WCI  30
GROSSE ILE     CLOUDY    37  30  75 SW12      30.03R WCI  30
HILLSDALE      CLOUDY    36  31  83 W9G20     30.01R WCI  29
HOWELL         CLOUDY    35  31  85 SW13G20   30.00R WCI  26

CITY           SKY/WX    TMP DP  RH WIND       PRES   REMARKS
JACKSON        CLOUDY    36  29  75 W10G22    30.01R WCI  28
LAMBERTVILLE   CLOUDY    37  30  75 W13G24    30.05R WCI  29
LANSING        CLOUDY    36  29  75 SW14      30.00R WCI  27
LAPEER         CLOUDY    36  30  79 W14       29.98R WCI  27
MASON          CLOUDY    34  29  80 SW9G16    30.00R WCI  27
MONROE         CLOUDY    37  32  81 W15       30.03R WCI  28
MT. CLEMENS    CLOUDY    37  32  81 W15       30.00R WCI  28
PONTIAC        CLOUDY    35  28  75 SW10      29.99R WCI  27
PORT HOPE        N/A     38  30  73 W10G22    29.91R WCI  31
PORT HURON     CLOUDY    37  30  75 SW6       30.00R WCI  33
TRI CITIES     CLOUDY    38  31  76 SW14      29.96R WCI  30
TROY           CLOUDY    39  30  71 SW9       30.03R WCI  32
SAGINAW HB     CLOUDY    36  32  87 SW16      29.96R WCI  26
$$
MIZ043>046-050>051-056>058-064>065-071>073-077>080-252200-
SOUTHWEST LOWER MICHIGAN

CITY           SKY/WX    TMP DP  RH WIND       PRES   REMARKS
BATTLE CREEK   CLOUDY    37  29  72 SW15      30.01R WCI  28
BENTON HARBOR  PTSUNNY   38  31  76 SW14G21   30.01R WCI  30
BIG RAPIDS     CLOUDY    35  32  88 SW9       29.93R WCI  27
COLDWATER      CLOUDY    36  30  80 SW9       30.02R WCI  29
FREMONT        CLOUDY    36  30  80 SW16      29.95R WCI  26
HOLLAND        CLOUDY    39  30  70 SW20      29.99R WCI  29
GRAND RAPIDS   CLOUDY    37  29  72 SW14      29.99R WCI  28
IONIA          CLOUDY    37  31  79 SW15      29.97R WCI  28
KALAMAZOO      CLOUDY    38  29  70 SW13      30.02R WCI  30
LUDINGTON      MOCLDY    37  32  81 SW14G21   29.92R WCI  29
MARSHALL       CLOUDY    35  29  80 SW10G17   30.00R WCI  27
MOUNT PLEASANT CLOUDY    36  30  79 SW14      29.94R WCI  27
MUSKEGON       MOCLDY    38  30  73 SW18G24   29.97R WCI  28
SOUTH HAVEN    CLOUDY    39  31  72 SW12G20   30.00R WCI  32
$$
MIZ016>042-252200-
NORTHERN LOWER MICHIGAN

CITY           SKY/WX    TMP DP  RH WIND       PRES   REMARKS
ALPENA         CLOUDY    37  30  75 SW14G20   29.86R WCI  28
BEAVER ISLAND  CLOUDY    36  32  85 SW13G23   29.83R WCI  27
BELLAIRE       CLOUDY    37  30  75 SW7G21    29.87R WCI  32
CADILLAC       CLOUDY    33  30  88 SW15G22   29.87R WCI  23
CHARLEVOIX     CLOUDY    36  32  84 SW18G24   29.87R WCI  26
FRANKFORT      CLOUDY    37  32  83 SW13G20   29.89R WCI  28
GAYLORD        CLOUDY    33  30  88 W14       29.83R WCI  23
GRAYLING       CLOUDY    35  31  84 W10G18    29.87R WCI  28
HARBOR SPRINGS CLOUDY    37  31  81 SW16G24   29.83R WCI  27
HOUGHTON LAKE  CLOUDY    34  28  79 SW15G24   29.88R WCI  24
MANISTEE       CLOUDY    37  28  70 SW12G17   29.91R WCI  30
OSCODA         CLOUDY    37  31  78 SW15      29.88R WCI  28
PELLSTON       CLOUDY    37  30  75 W16G28    29.82R WCI  28
ROGERS CITY    CLOUDY    37  32  84 SW10G18   29.84R WCI  29
TRAVERSE CITY  CLOUDY    38  30  73 SW8G16    29.86R WCI  32
$$
MIZ007>008-015-252200-
EASTERN UPPER MICHIGAN

CITY           SKY/WX    TMP DP  RH WIND       PRES   REMARKS
KINROSS        CLOUDY    36  32  87 W10G21    29.78R WCI  28
MACKINAC ISLAN CLOUDY    36  33  88 SW15G23   29.81R WCI  27
NEWBERRY       CLOUDY    34  31  90 SW10      29.78R WCI  26
S. S. MARIE    CLOUDY    36  29  75 SW10      29.77R WCI  28
MUNISING         N/A     39  29  67 W5        29.78R
$$
MIZ004>006-011>014-085-252200-
CENTRAL UPPER MICHIGAN

CITY           SKY/WX    TMP DP  RH WIND       PRES   REMARKS
MANISTIQUE     CLOUDY    35  32  88 MISG      29.80R
ESCANABA       CLOUDY    36  28  75 SW8G16    29.80R WCI  29
MENOMINEE      CLOUDY    36  28  75 SW9G16    29.82R WCI  29
SAWYER-GWINN   CLOUDY    34  30  86 SW10      29.75R WCI  26
$$
MIZ001>003-009>011-084-252200-
WESTERN UPPER MICHIGAN

CITY           SKY/WX    TMP DP  RH WIND       PRES   REMARKS
IRON MOUNTAIN  CLOUDY    34  28  79 SW3       29.77R
HOUGHTON       CLOUDY    33  29  85 W13       29.72R WCI  24
COPPER HARBOR    N/A     36  30  79 MISG      29.72R
IRONWOOD       CLOUDY    32  28  86 W12       29.73R WCI  23
$$

ABBREVIATIONS USED IN REMARKS
   TC - TEMPERATURE IN CELSIUS
  WCI - WIND CHILL INDEX
   HX - HEAT INDEX
  VSB - VISIBILITY



USA.gov is the U.S. government's official web portal to all federal, state and local government web resources and services.